AAL2105 KDCA-KMIA

Flight info

Callsign AAL2105
Flight time N/A
Altitude 36000
Route AMEEE1 SCOOB EARZZ SKARP Y313 HOAGG BNFSH2
Aircraft B738/M-SDE2E3FGHIRWXY/LB1

Departure

Time N/A
Airport Ronald Reagan Washington National Airport (KDCA)

Arrival

Time 2026-04-30 18:36
Airport Miami International Airport (KMIA)
Time Latitude Longitude Altitude Speed Heading
2026-04-30 17:39 30.93382 -78.46585 35909 ft 466 kts 205°
2026-04-30 17:42 30.62187 -78.56896 35914 ft 465 kts 205°
2026-04-30 17:43 30.46651 -78.62005 35915 ft 463 kts 205°
2026-04-30 17:44 30.29141 -78.67745 35928 ft 461 kts 205°
2026-04-30 17:47 30.01450 -78.76795 35933 ft 459 kts 204°
2026-04-30 17:48 29.79920 -78.83806 35935 ft 462 kts 204°
2026-04-30 17:49 29.67024 -78.86037 35939 ft 474 kts 193°
2026-04-30 17:50 29.53918 -78.87589 35939 ft 473 kts 194°
2026-04-30 17:52 29.34323 -78.90227 35945 ft 472 kts 194°
2026-04-30 17:54 29.04948 -78.94150 35953 ft 474 kts 193°
2026-04-30 17:56 28.78731 -78.97632 35957 ft 475 kts 193°
2026-04-30 17:58 28.59091 -79.00229 35955 ft 475 kts 193°
2026-04-30 18:00 28.32822 -79.03857 35949 ft 469 kts 201°
2026-04-30 18:01 28.17486 -79.09725 35964 ft 466 kts 205°
2026-04-30 18:02 27.99004 -79.16641 35968 ft 468 kts 204°
2026-04-30 18:04 27.80419 -79.23526 35969 ft 468 kts 204°
2026-04-30 18:06 27.55613 -79.32680 34509 ft 464 kts 204°
2026-04-30 18:07 27.43373 -79.37185 33034 ft 463 kts 204°
2026-04-30 18:08 27.34191 -79.40557 31915 ft 463 kts 204°
2026-04-30 18:09 27.21854 -79.45077 30492 ft 469 kts 202°
2026-04-30 18:10 27.09485 -79.49595 28964 ft 469 kts 202°
2026-04-30 18:11 26.97051 -79.54128 27444 ft 471 kts 201°
2026-04-30 18:11 26.88003 -79.57416 26325 ft 440 kts 201°
2026-04-30 18:12 26.79525 -79.60472 25265 ft 415 kts 201°
2026-04-30 18:13 26.74127 -79.62417 24583 ft 403 kts 201°
2026-04-30 18:13 26.67043 -79.64971 23707 ft 397 kts 201°
2026-04-30 18:14 26.61037 -79.67123 22811 ft 384 kts 200°
2026-04-30 18:15 26.53521 -79.69749 21675 ft 371 kts 200°
2026-04-30 18:15 26.46330 -79.72477 20540 ft 355 kts 217°
2026-04-30 18:16 26.43188 -79.76478 19867 ft 339 kts 238°
2026-04-30 18:16 26.40399 -79.80681 19160 ft 335 kts 234°
2026-04-30 18:17 26.38924 -79.82690 18824 ft 334 kts 233°
2026-04-30 18:17 26.37421 -79.84648 18493 ft 332 kts 232°
2026-04-30 18:17 26.34383 -79.88499 17746 ft 328 kts 232°
2026-04-30 18:18 26.32877 -79.90398 17362 ft 326 kts 232°
2026-04-30 18:18 26.31483 -79.92369 16974 ft 322 kts 238°
2026-04-30 18:18 26.30222 -79.94426 16593 ft 320 kts 239°
2026-04-30 18:18 26.28979 -79.96476 16225 ft 319 kts 239°
2026-04-30 18:19 26.27742 -79.98481 15863 ft 317 kts 239°
2026-04-30 18:19 26.26470 -80.00480 15494 ft 317 kts 233°
2026-04-30 18:19 26.24766 -80.02060 15131 ft 324 kts 213°
2026-04-30 18:19 26.22631 -80.02903 14784 ft 328 kts 197°
2026-04-30 18:20 26.20399 -80.03419 14440 ft 327 kts 195°
2026-04-30 18:20 26.18163 -80.03894 14094 ft 326 kts 195°
2026-04-30 18:20 26.15937 -80.04373 13748 ft 325 kts 195°
2026-04-30 18:20 26.13719 -80.04862 13357 ft 324 kts 195°
2026-04-30 18:21 26.11529 -80.05355 12977 ft 322 kts 195°
2026-04-30 18:21 26.09333 -80.05856 12592 ft 321 kts 195°
2026-04-30 18:21 26.07152 -80.06354 12230 ft 320 kts 195°
2026-04-30 18:21 26.04985 -80.06885 11862 ft 318 kts 197°
2026-04-30 18:22 26.02836 -80.07449 11503 ft 316 kts 197°
2026-04-30 18:22 25.98570 -80.08575 10788 ft 314 kts 197°
2026-04-30 18:22 25.96448 -80.09128 10438 ft 312 kts 196°
2026-04-30 18:23 25.94347 -80.09674 10085 ft 307 kts 196°
2026-04-30 18:23 25.92295 -80.10230 9734 ft 300 kts 201°
2026-04-30 18:23 25.90429 -80.11101 9355 ft 291 kts 210°
2026-04-30 18:23 25.88642 -80.12154 8966 ft 286 kts 211°
2026-04-30 18:24 25.85901 -80.15023 8242 ft 272 kts 241°
2026-04-30 18:24 25.84996 -80.16855 7871 ft 269 kts 243°
2026-04-30 18:24 25.84115 -80.18681 7517 ft 268 kts 243°
2026-04-30 18:25 25.83217 -80.20482 7159 ft 266 kts 241°
2026-04-30 18:25 25.81378 -80.23998 6454 ft 261 kts 240°
2026-04-30 18:25 25.80454 -80.25711 6083 ft 258 kts 239°
2026-04-30 18:26 25.78601 -80.29098 5363 ft 258 kts 239°
2026-04-30 18:26 25.77656 -80.30810 5053 ft 259 kts 239°
2026-04-30 18:26 25.76713 -80.32512 5020 ft 259 kts 239°
2026-04-30 18:27 25.74838 -80.35886 5001 ft 254 kts 239°
2026-04-30 18:27 25.73917 -80.37542 4994 ft 251 kts 239°
2026-04-30 18:28 25.72095 -80.40820 5013 ft 250 kts 240°
2026-04-30 18:28 25.71513 -80.42612 5012 ft 254 kts 260°
2026-04-30 18:28 25.70828 -80.46465 4993 ft 255 kts 242°
2026-04-30 18:29 25.69855 -80.48095 5007 ft 252 kts 234°
2026-04-30 18:29 25.66671 -80.52775 5006 ft 259 kts 233°
2026-04-30 18:30 25.65480 -80.55739 5002 ft 260 kts 274°
2026-04-30 18:30 25.68199 -80.58860 4702 ft 265 kts 355°
2026-04-30 18:31 25.69950 -80.58458 4514 ft 254 kts 27°
2026-04-30 18:31 25.72406 -80.55873 4053 ft 239 kts 53°
2026-04-30 18:32 25.74406 -80.52977 3599 ft 232 kts 52°
2026-04-30 18:32 25.75394 -80.51589 3359 ft 225 kts 52°
2026-04-30 18:32 25.76995 -80.48728 2954 ft 219 kts 84°
2026-04-30 18:33 25.77152 -80.47077 2785 ft 215 kts 83°
2026-04-30 18:33 25.77603 -80.43798 2350 ft 213 kts 82°
2026-04-30 18:33 25.77846 -80.42196 2103 ft 205 kts 83°
2026-04-30 18:34 25.78078 -80.40685 1906 ft 194 kts 83°
2026-04-30 18:34 25.78365 -80.37814 1228 ft 184 kts 91°
2026-04-30 18:34 25.78388 -80.36419 967 ft 175 kts 90°
2026-04-30 18:35 25.78490 -80.35135 932 ft 156 kts 91°
2026-04-30 18:35 25.78506 -80.34379 867 ft 140 kts 93°
2026-04-30 18:35 25.78525 -80.33303 623 ft 140 kts 92°
2026-04-30 18:36 25.78633 -80.31138 48 ft 134 kts 92°
2026-04-30 18:36 25.78659 -80.30282 17 ft 78 kts 87°
2026-04-30 18:36 25.78729 -80.29818 19 ft 7 kts 14°
2026-04-30 18:37 25.78766 -80.29805 17 ft 5 kts 31°
2026-04-30 18:37 25.78791 -80.29749 18 ft 13 kts 98°
2026-04-30 18:37 25.78799 -80.29653 17 ft 13 kts 77°
2026-04-30 18:37 25.78811 -80.29507 18 ft 24 kts 86°
2026-04-30 18:38 25.78816 -80.29347 16 ft 19 kts 92°
2026-04-30 18:38 25.78819 -80.29179 15 ft 15 kts 87°
2026-04-30 18:38 25.78820 -80.29037 16 ft 23 kts 80°
2026-04-30 18:38 25.78874 -80.28883 15 ft 18 kts 29°
2026-04-30 18:39 25.79019 -80.28877 13 ft 23 kts 357°
2026-04-30 18:39 25.79155 -80.28881 12 ft 19 kts 360°
2026-04-30 18:39 25.79320 -80.28881 15 ft 11 kts 359°
2026-04-30 18:39 25.79325 -80.28881 15 ft 0 kts 359°
2026-04-30 18:40 25.79327 -80.28882 14 ft 3 kts 359°
2026-04-30 18:40 25.79389 -80.28883 15 ft 15 kts 360°
2026-04-30 18:40 25.79474 -80.28825 17 ft 9 kts 19°
2026-04-30 18:40 25.79500 -80.28824 17 ft 8 kts
2026-04-30 18:41 25.79557 -80.28783 20 ft 14 kts 58°
2026-04-30 18:41 25.79589 -80.28658 19 ft 20 kts 78°
2026-04-30 18:41 25.79625 -80.28508 19 ft 18 kts 74°
2026-04-30 18:41 25.79679 -80.28414 18 ft 15 kts 40°
2026-04-30 18:42 25.79724 -80.28400 18 ft 1 kts 347°
2026-04-30 18:42 25.79730 -80.28403 18 ft 0 kts 336°